Baltimore,Washington International Thurgood Marshal Airport Baltimore US
ICAO: KBWI
IATA: BWI
Category: Large
Scheduled Services: Yes

Elevation: 146 ft
TransAlt. 18000 ft.

Airport Communications:
POTOMAC APP:119
ATIS:115.1
CLNC DEL:118.05
POTOMAC DEP:126.75
GND:121.9
LEESBURG RDO:122.2
TWR:119.4
UNICOM:122.95

KBWI Zoom In..

If Map Doesn't Load, Click Here

Runways:

(A) RW 04 length 6000 ft width 150 ft
---- / hdg 44

(B) RW 10 length 10502 ft width 150 ft
ILS 109.70 / hdg 105

(C) RW 15L length 5000 ft width 100 ft
ILS 111.95 / hdg 155

(D) RW 15R length 9501 ft width 150 ft
ILS 111.70 / hdg 155

(E) RW 22 length 6000 ft width 150 ft
---- / hdg 224

(F) RW 28 length 10502 ft width 150 ft
ILS 109.70 / hdg 285

(G) RW 33L length 9501 ft width 150 ft
ILS 111.70 / hdg 335

(H) RW 33R length 5000 ft width 100 ft
ILS 111.95 / hdg 335

Location; KBWI
Day. 23 / Time. 20.54 Zulu
* Altimeter: 30.19
* Temperature: 17° c. 62.6°f.
* Wind from: 050° Speed 08 kn.
Dewpoint: 16° c.
Visibility: 8 Statute Miles.
Clouds: Few 800 ft.
Clouds: Broken 1200 ft.
Clouds: Overcast 1800 ft.
Conditions: Light Rain.

KBWI 232054Z 05008KT 8SM -RA FEW008 BKN012 OVC018 17/16 A3019 RMK AO2 SLP223 P0001 60003 T01670156 56004


Wind From 050°
Speed 08 kn.

 
 
jpsmedia.com for Web Design worldairports.se 2018   terms of use